• In Österreich
  • Länderverzeichnis
  • Für 7 Tage
  • Wassertemperatur
  • Satellitenkarten
  • Wetterkarte
  • News
  • Widgets
  • user-avatar
    Anmelden

    Stündliche Wetter Canillo

    Heute, 21 Februar, Mittwoch

    Zeit Temperatur Niederschläge Wind Luftdruck Luftfeuchtigkeit
    00:00 -4°C° 0,4 mm 3 m/S 612 mmHg 87%
    01:00 -4°C° 0,9 mm 3 m/S 612 mmHg 88%
    02:00 -4°C° 0,9 mm 3 m/S 611 mmHg 89%
    03:00 -3°C° 0,9 mm 2 m/S 611 mmHg 89%
    04:00 -4°C° 0,9 mm 2 m/S 611 mmHg 89%
    05:00 -5°C° 0,9 mm 3 m/S 611 mmHg 89%
    06:00 -6°C° 0,9 mm 3 m/S 610 mmHg 89%
    07:00 -6°C° 0,2 mm 3 m/S 610 mmHg 85%
    08:00 -7°C° 0,2 mm 4 m/S 610 mmHg 82%
    09:00 -7°C° 0,2 mm 4 m/S 610 mmHg 78%
    10:00 -7°C° 0 mm 4 m/S 611 mmHg 73%
    11:00 -5°C° 0 mm 4 m/S 611 mmHg 68%
    12:00 -5°C° 0 mm 4 m/S 611 mmHg 63%
    13:00 -5°C° 0 mm 4 m/S 611 mmHg 64%
    14:00 -5°C° 0 mm 4 m/S 611 mmHg 64%
    15:00 -5°C° 0 mm 4 m/S 610 mmHg 65%
    16:00 -8°C° 0 mm 4 m/S 610 mmHg 69%
    17:00 -8°C° 0 mm 3 m/S 610 mmHg 73%
    18:00 -9°C° 0 mm 3 m/S 609 mmHg 77%
    19:00 -10°C° 0 mm 3 m/S 609 mmHg 77%
    20:00 -10°C° 0 mm 3 m/S 609 mmHg 77%
    21:00 -12°C° 0 mm 3 m/S 609 mmHg 78%
    22:00 -12°C° 0 mm 3 m/S 609 mmHg 77%
    23:00 -13°C° 0 mm 3 m/S 609 mmHg 77%

    Morgen, 22 Februar, Donnerstag

    Zeit Temperatur Niederschläge Wind Luftdruck Luftfeuchtigkeit
    00:00 -13°C° 0 mm 3 m/S 609 mmHg 77%
    01:00 -13°C° 0 mm 3 m/S 608 mmHg 77%
    02:00 -13°C° 0 mm 3 m/S 608 mmHg 76%
    03:00 -13°C° 0 mm 3 m/S 608 mmHg 76%
    04:00 -13°C° 0 mm 3 m/S 608 mmHg 76%
    05:00 -13°C° 0 mm 3 m/S 607 mmHg 76%
    06:00 -13°C° 0 mm 3 m/S 607 mmHg 76%
    07:00 -12°C° 0 mm 4 m/S 608 mmHg 73%
    08:00 -10°C° 0 mm 4 m/S 608 mmHg 70%
    09:00 -9°C° 0 mm 4 m/S 609 mmHg 67%
    10:00 -8°C° 0 mm 4 m/S 609 mmHg 64%
    11:00 -7°C° 0 mm 4 m/S 609 mmHg 61%
    12:00 -5°C° 0 mm 4 m/S 609 mmHg 58%
    13:00 -5°C° 0 mm 4 m/S 609 mmHg 58%
    14:00 -5°C° 0 mm 4 m/S 609 mmHg 59%
    15:00 -7°C° 0 mm 4 m/S 608 mmHg 59%
    16:00 -8°C° 0 mm 4 m/S 608 mmHg 64%
    17:00 -8°C° 0 mm 3 m/S 608 mmHg 70%
    18:00 -10°C° 0 mm 3 m/S 607 mmHg 75%
    19:00 -10°C° 0 mm 3 m/S 608 mmHg 75%
    20:00 -12°C° 0 mm 3 m/S 608 mmHg 76%
    21:00 -13°C° 0 mm 3 m/S 608 mmHg 76%
    22:00 -13°C° 0 mm 3 m/S 607 mmHg 76%
    23:00 -13°C° 0 mm 3 m/S 607 mmHg 75%

    übermorgen, 23 Februar, Freitag

    Zeit Temperatur Niederschläge Wind Luftdruck Luftfeuchtigkeit
    00:00 -12°C° 0 mm 2 m/S 607 mmHg 75%
    01:00 -13°C° 0 mm 2 m/S 607 mmHg 74%
    02:00 -13°C° 0 mm 2 m/S 607 mmHg 73%
    03:00 -13°C° 0 mm 2 m/S 606 mmHg 73%
    04:00 -13°C° 0 mm 2 m/S 607 mmHg 72%
    05:00 -13°C° 0 mm 2 m/S 607 mmHg 71%
    06:00 -13°C° 0 mm 2 m/S 607 mmHg 70%
    07:00 -10°C° 0 mm 2 m/S 608 mmHg 66%
    08:00 -8°C° 0 mm 2 m/S 609 mmHg 62%
    09:00 -4°C° 0 mm 1 m/S 610 mmHg 58%
    10:00 -3°C° 0 mm 1 m/S 610 mmHg 57%
    11:00 -1°C° 0 mm 1 m/S 610 mmHg 55%
    12:00 0°C° 0 mm 1 m/S 611 mmHg 53%
    13:00 0°C° 0 mm 1 m/S 611 mmHg 55%
    14:00 0°C° 0 mm 1 m/S 611 mmHg 56%
    15:00 0°C° 0 mm 1 m/S 610 mmHg 57%
    16:00 -2°C° 0 mm 1 m/S 609 mmHg 64%
    17:00 -4°C° 0 mm 1 m/S 609 mmHg 72%
    18:00 -7°C° 0 mm 0 m/S 608 mmHg 79%
    19:00 -8°C° 0 mm 0 m/S 608 mmHg 78%
    20:00 -8°C° 0 mm 1 m/S 608 mmHg 77%
    21:00 -8°C° 0 mm 1 m/S 608 mmHg 76%
    22:00 -8°C° 0 mm 1 m/S 608 mmHg 74%
    23:00 -9°C° 0 mm 1 m/S 608 mmHg 73%

    24 Februar, Samstag

    Zeit Temperatur Niederschläge Wind Luftdruck Luftfeuchtigkeit
    00:00 -9°C° 0 mm 1 m/S 608 mmHg 71%
    01:00 -9°C° 0 mm 1 m/S 608 mmHg 70%
    02:00 -9°C° 0 mm 1 m/S 608 mmHg 69%
    03:00 -9°C° 0 mm 1 m/S 608 mmHg 67%
    04:00 -9°C° 0 mm 1 m/S 608 mmHg 65%
    05:00 -9°C° 0 mm 1 m/S 608 mmHg 63%
    06:00 -9°C° 0 mm 1 m/S 608 mmHg 61%
    07:00 -7°C° 0 mm 1 m/S 609 mmHg 57%
    08:00 -4°C° 0 mm 0 m/S 610 mmHg 54%
    09:00 -2°C° 0 mm 0 m/S 611 mmHg 50%
    10:00 0°C° 0 mm 1 m/S 612 mmHg 49%
    11:00 +2°C° 0 mm 1 m/S 612 mmHg 48%
    12:00 +3°C° 0 mm 1 m/S 612 mmHg 47%
    13:00 +3°C° 0 mm 1 m/S 612 mmHg 49%
    14:00 +3°C° 0 mm 1 m/S 612 mmHg 51%
    15:00 +3°C° 0 mm 1 m/S 612 mmHg 52%
    16:00 +1°C° 0 mm 1 m/S 611 mmHg 59%
    17:00 -1°C° 0 mm 1 m/S 611 mmHg 67%
    18:00 -3°C° 0 mm 1 m/S 610 mmHg 74%
    19:00 -4°C° 0 mm 1 m/S 610 mmHg 75%
    20:00 -4°C° 0 mm 1 m/S 611 mmHg 76%
    21:00 -4°C° 0 mm 1 m/S 611 mmHg 77%
    22:00 -4°C° 0 mm 1 m/S 611 mmHg 77%
    23:00 -4°C° 0 mm 1 m/S 611 mmHg 76%

    25 Februar, Sonntag

    Zeit Temperatur Niederschläge Wind Luftdruck Luftfeuchtigkeit
    00:00 -6°C° 0 mm 1 m/S 611 mmHg 76%
    01:00 -6°C° 0 mm 1 m/S 611 mmHg 74%
    02:00 -6°C° 0 mm 1 m/S 611 mmHg 71%
    03:00 -7°C° 0 mm 1 m/S 611 mmHg 69%
    04:00 -8°C° 0 mm 2 m/S 611 mmHg 67%
    05:00 -8°C° 0 mm 2 m/S 611 mmHg 65%
    06:00 -8°C° 0 mm 2 m/S 611 mmHg 63%
    07:00 -6°C° 0 mm 2 m/S 612 mmHg 61%
    08:00 -4°C° 0 mm 2 m/S 613 mmHg 58%
    09:00 +1°C° 0 mm 1 m/S 614 mmHg 56%
    10:00 +1°C° 0 mm 2 m/S 614 mmHg 56%
    11:00 +2°C° 0 mm 2 m/S 614 mmHg 56%
    12:00 +3°C° 0 mm 2 m/S 615 mmHg 56%
    13:00 +3°C° 0 mm 2 m/S 615 mmHg 56%
    14:00 +2°C° 0 mm 3 m/S 614 mmHg 56%
    15:00 +2°C° 0 mm 3 m/S 614 mmHg 57%
    16:00 +1°C° 0 mm 2 m/S 613 mmHg 63%
    17:00 -2°C° 0 mm 2 m/S 613 mmHg 69%
    18:00 -4°C° 0 mm 2 m/S 612 mmHg 75%
    19:00 -5°C° 0 mm 2 m/S 612 mmHg 73%
    20:00 -5°C° 0 mm 2 m/S 612 mmHg 70%
    21:00 -6°C° 0 mm 2 m/S 612 mmHg 67%
    22:00 -6°C° 0 mm 2 m/S 612 mmHg 65%
    23:00 -6°C° 0 mm 2 m/S 612 mmHg 62%

    26 Februar, Montag

    Zeit Temperatur Niederschläge Wind Luftdruck Luftfeuchtigkeit
    00:00 -6°C° 0 mm 2 m/S 612 mmHg 60%
    01:00 -6°C° 0 mm 2 m/S 611 mmHg 59%
    02:00 -7°C° 0 mm 2 m/S 611 mmHg 57%
    03:00 -6°C° 0 mm 1 m/S 611 mmHg 56%
    04:00 -6°C° 0 mm 1 m/S 611 mmHg 56%
    05:00 -6°C° 0 mm 1 m/S 611 mmHg 56%
    06:00 -6°C° 0 mm 1 m/S 611 mmHg 56%
    07:00 -3°C° 0 mm 1 m/S 612 mmHg 55%
    08:00 -1°C° 0 mm 1 m/S 612 mmHg 54%
    09:00 +1°C° 0 mm 1 m/S 613 mmHg 52%
    10:00 +2°C° 0 mm 1 m/S 613 mmHg 53%
    11:00 +3°C° 0 mm 1 m/S 614 mmHg 53%
    12:00 +3°C° 0 mm 2 m/S 614 mmHg 53%
    13:00 +2°C° 0 mm 2 m/S 613 mmHg 55%
    14:00 +2°C° 0 mm 2 m/S 613 mmHg 56%
    15:00 +2°C° 0 mm 2 m/S 612 mmHg 57%
    16:00 -1°C° 0 mm 2 m/S 611 mmHg 63%
    17:00 -2°C° 0 mm 2 m/S 611 mmHg 69%
    18:00 -4°C° 0 mm 2 m/S 610 mmHg 75%
    19:00 -4°C° 0 mm 2 m/S 610 mmHg 77%
    20:00 -5°C° 0 mm 2 m/S 610 mmHg 79%
    21:00 -5°C° 0 mm 2 m/S 610 mmHg 81%
    22:00 -6°C° 0 mm 2 m/S 610 mmHg 81%
    23:00 -6°C° 0 mm 2 m/S 609 mmHg 82%
    Mehr zeigen